This is the latest recevied weather packets stored in our database for station/object KU9TRY. If no packets are shown the sender has not sent any weather packets the latest 10 day(s).
| Time | Temp. | Humidity | Pressure | Rain* | Wind** | Luminosity | Snow |
|---|---|---|---|---|---|---|---|
| 1787934427 | 30° C | 56% | 1018.9 hPa | 0 mm | - | 152 W/m² | - |
| 1787934121 | 30.56° C | 54% | 1018.7 hPa | 0 mm | - | 175 W/m² | - |
| 1787933820 | 30° C | 57% | 1018.9 hPa | 0 mm | - | 952 W/m² | - |
| 1787933515 | 30° C | 57% | 1019 hPa | 0 mm | - | 988 W/m² | - |
| 1787933215 | 30.56° C | 56% | 1018.9 hPa | 0 mm | - | 202 W/m² | - |
| 1787932910 | 30.56° C | 58% | 1018.9 hPa | 0 mm | - | 877 W/m² | - |
| 1787932609 | 30° C | 58% | 1018.9 hPa | 0 mm | - | 871 W/m² | - |
| 1787932309 | 30° C | 57% | 1019 hPa | 0 mm | - | 865 W/m² | - |
| 1787932003 | 29.44° C | 60% | 1019 hPa | 0 mm | - | 855 W/m² | - |
| 1787931703 | 30° C | 59% | 1018.9 hPa | 0 mm | - | 249 W/m² | - |
| 1787931403 | 30.56° C | 61% | 1018.9 hPa | 0 mm | - | 796 W/m² | - |
| 1787931098 | 30° C | 62% | 1018.9 hPa | 0 mm | - | 788 W/m² | - |
| 1787930797 | 29.44° C | 62% | 1018.9 hPa | 0 mm | - | 772 W/m² | - |
| 1787930497 | 29.44° C | 66% | 1019 hPa | 0 mm | - | 790 W/m² | - |
| 1787930192 | 29.44° C | 64% | 1019.1 hPa | 0 mm | - | 522 W/m² | - |
| 1787929892 | 29.44° C | 65% | 1019 hPa | 0 mm | - | 512 W/m² | - |
| 1787929591 | 28.89° C | 67% | 1018.8 hPa | 0 mm | - | 706 W/m² | - |
| 1787929291 | 28.33° C | 69% | 1018.9 hPa | 0 mm | - | 456 W/m² | - |
| 1787928989 | 28.33° C | 69% | 1018.9 hPa | 0 mm | - | 591 W/m² | - |
| 1787928684 | 27.78° C | 73% | 1018.9 hPa | 0 mm | - | 656 W/m² | - |
| 1787928382 | 27.78° C | 72% | 1019 hPa | 0 mm | - | 643 W/m² | - |
| 1787928082 | 26.67° C | 73% | 1019 hPa | 0 mm | - | 618 W/m² | - |
| 1787927780 | 27.22° C | 75% | 1018.9 hPa | 0 mm | - | 222 W/m² | - |
| 1787927476 | 27.22° C | 74% | 1018.9 hPa | 0 mm | - | 255 W/m² | - |
| 1787927171 | 27.22° C | 74% | 1019 hPa | 0 mm | - | 298 W/m² | - |
* Rain latest hour (hover to see other rain measurements)
** Current wind speed in m/s (hover to see current wind gust speed)